Tracking 19575 objects as of 18-Feb-2019
HD Live streaming from Space Station
objects crossing your sky now

BS-3B (YURI 3B)

Track BS-3B (YURI 3B) now!
BS-3B (YURI 3B) is classified as:


NORAD ID: 21668
Int'l Code: 1991-060A
Perigee: 36,199.8 km
Apogee: 36,229.9 km
Inclination: 13.3 °
Period: 1,457.7 minutes
Semi major axis: 42585 km
RCS: 1.6 m2 (large)
Launch date: August 25, 1991
Source: Japan (JPN)
Launch site: TANEGASHIMA SPACE CENTER (TNSTA)
aabbcc
Your satellite tracking list
Your tracking list is empty




NASA's NSSDC Master Catalog

Two Line Element Set (TLE):
1 21668U 91060A   19049.44034980 -.00000023  00000-0  00000+0 0  9999
2 21668  13.2721  15.2045 0003536 348.8139 206.2261  0.98788187102931
Source of the keplerian elements: AFSPC